FW0152 Weather Reports


time (UTC)temp
C
wind
direction
speed
KPH
gust
KPH
rain 1hr
cm
rain 24hr
cm
rain mn
cm
humidity
%
barometer
mb
20260503025527 8 0 0.0 0.0 0.00 0.00 0.00 89 1010.3
20260503025026 8 0 0.0 0.0 0.00 0.00 0.00 89 1010.2
20260503024543 8 0 0.0 0.0 0.00 0.00 0.00 89 1010.2
20260503024028 8 0 0.0 0.0 0.00 0.00 0.00 89 1010.3
20260503023525 8 0 0.0 0.0 0.00 0.00 0.00 89 1010.3
20260503023038 8 0 0.0 0.0 0.00 0.00 0.00 89 1010.3
20260503022527 8 0 0.0 0.0 0.00 0.00 0.00 89 1010.4
20260503022029 8 0 0.0 0.0 0.00 0.00 0.00 89 1010.5
20260503021537 8 0 0.0 0.0 0.00 0.00 0.00 88 1010.5
20260503021026 8 0 0.0 0.0 0.00 0.00 0.00 88 1010.6
20260503020527 8 0 0.0 0.0 0.00 0.00 0.00 88 1010.6
20260503020039 8 0 0.0 0.0 0.00 0.00 0.00 88 1010.6
20260503015527 8 0 0.0 0.0 0.00 0.00 0.00 88 1010.6
20260503015027 8 0 0.0 0.0 0.00 0.00 0.00 88 1010.7
20260503014541 8 0 0.0 0.0 0.00 0.00 0.00 88 1010.7
20260503014026 9 0 0.0 0.0 0.00 0.00 0.00 88 1010.7
20260503013526 9 0 0.0 0.0 0.00 0.00 0.00 88 1010.8
20260503013043 9 0 0.0 0.0 0.00 0.00 0.00 88 1010.6
20260503012526 9 0 0.0 0.0 0.00 0.00 0.00 88 1010.7
20260503012026 9 0 0.0 0.0 0.00 0.00 0.00 88 1010.9
20260503011543 9 0 0.0 0.0 0.00 0.00 0.00 88 1010.8
20260503011025 9 0 0.0 1.6 0.00 0.00 0.00 88 1010.6
20260503010527 9 0 0.0 1.6 0.00 0.00 0.00 88 1010.6
20260503010037 9 0 0.0 0.0 0.00 0.00 0.00 88 1010.6
20260503005528 9 0 0.0 0.0 0.00 0.00 0.00 88 1010.4
20260503005028 9 0 0.0 0.0 0.00 0.00 0.00 88 1010.5
20260503004540 9 0 0.0 0.0 0.00 0.00 0.00 88 1010.4
20260503004026 9 0 0.0 1.6 0.00 0.00 0.00 88 1010.4
20260503003527 9 0 0.0 1.6 0.00 0.00 0.00 88 1010.4
20260503003056 9 0 0.0 1.6 0.00 0.00 0.00 87 1010.3
20260503002526 9 0 0.0 3.2 0.00 0.00 0.00 87 1010.4
20260503002029 9 0 0.0 3.2 0.00 0.00 0.00 87 1010.4
20260503001542 9 0 0.0 3.2 0.00 0.00 0.00 87 1010.3
20260503001026 9 0 0.0 1.6 0.00 0.00 0.00 87 1010.3
20260503000529 9 0 0.0 1.6 0.00 0.00 0.00 87 1010.4
20260503000039 9 0 0.0 1.6 0.00 0.00 0.00 87 1010.3
20260502235525 9 0 0.0 1.6 0.00 0.00 0.00 87 1010.4
20260502235026 9 0 0.0 1.6 0.00 0.00 0.00 87 1010.4
20260502234535 9 0 0.0 1.6 0.00 0.00 0.00 87 1010.5
20260502234024 10 0 0.0 1.6 0.00 0.00 0.00 87 1010.4
20260502233525 10 0 0.0 0.0 0.00 0.00 0.00 86 1010.5
20260502233046 10 0 0.0 0.0 0.00 0.00 0.00 86 1010.5
20260502232524 10 0 0.0 0.0 0.00 0.00 0.00 86 1010.5
20260502232024 10 0 0.0 1.6 0.00 0.00 0.00 86 1010.6
20260502231558 10 0 0.0 1.6 0.00 0.00 0.00 86 1010.6
20260502231026 10 0 0.0 1.6 0.00 0.00 0.00 86 1010.5
20260502230528 10 0 0.0 0.0 0.00 0.00 0.00 86 1010.5
20260502230040 10 0 0.0 0.0 0.00 0.00 0.00 86 1010.5
20260502225525 10 0 0.0 1.6 0.00 0.00 0.00 86 1010.5
20260502225027 10 0 0.0 1.6 0.00 0.00 0.00 86 1010.7
20260502224538 10 0 0.0 1.6 0.00 0.00 0.00 86 1010.6
20260502224025 10 0 0.0 1.6 0.00 0.00 0.00 86 1010.7
20260502223525 10 0 0.0 3.2 0.00 0.00 0.00 86 1010.5
20260502223044 10 0 0.0 3.2 0.00 0.00 0.00 86 1010.6
20260502222523 10 168 0.0 3.2 0.00 0.00 0.00 86 1010.5
20260502222024 10 0 0.0 1.6 0.00 0.00 0.00 85 1010.5
20260502221555 10 0 0.0 3.2 0.00 0.00 0.00 85 1010.4
20260502221024 10 0 0.0 3.2 0.00 0.00 0.00 85 1010.5
20260502220526 10 0 0.0 1.6 0.00 0.00 0.00 85 1010.5
20260502220043 10 0 0.0 1.6 0.00 0.00 0.00 86 1010.3
20260502215527 10 0 0.0 1.6 0.00 0.00 0.00 86 1010.4
20260502215025 10 0 0.0 3.2 0.00 0.00 0.00 86 1010.4
20260502214538 10 0 0.0 3.2 0.00 0.00 0.00 86 1010.5
20260502214024 10 0 0.0 6.4 0.00 0.00 0.00 86 1010.3
20260502213524 10 0 0.0 6.4 0.00 0.00 0.00 85 1010.2
20260502213048 10 168 0.0 6.4 0.00 0.00 0.00 85 1010.2
20260502212524 10 0 0.0 6.4 0.00 0.00 0.00 85 1010.2
20260502212028 10 360 1.6 6.4 0.00 0.00 0.00 85 1010.2
20260502211545 10 360 0.0 4.8 0.00 0.00 0.00 85 1010.3
20260502211030 10 0 0.0 4.8 0.00 0.00 0.00 85 1010.2
20260502210525 10 159 0.0 3.2 0.00 0.00 0.00 85 1010.3
20260502210044 10 0 0.0 3.2 0.00 0.00 0.00 85 1010.3
20260502205528 10 0 0.0 1.6 0.00 0.00 0.00 85 1010.5
20260502205028 10 0 0.0 1.6 0.00 0.00 0.00 85 1010.5
20260502204547 10 0 0.0 1.6 0.00 0.00 0.00 85 1010.6
20260502204029 10 0 0.0 1.6 0.00 0.00 0.00 85 1010.6
20260502203528 10 0 0.0 4.8 0.00 0.00 0.00 85 1010.7
20260502203038 10 0 0.0 4.8 0.00 0.00 0.00 84 1010.7
20260502202523 10 360 0.0 4.8 0.00 0.00 0.00 85 1010.7
20260502202027 10 0 0.0 4.8 0.00 0.00 0.00 85 1010.7
20260502201537 10 0 0.0 3.2 0.00 0.00 0.00 86 1010.7
20260502201025 10 0 0.0 3.2 0.00 0.00 0.00 86 1010.7
20260502200528 10 0 0.0 3.2 0.00 0.00 0.00 86 1010.8
20260502200043 10 0 0.0 6.4 0.00 0.00 0.00 86 1010.9
20260502195525 10 0 0.0 6.4 0.00 0.00 0.00 86 1010.9
20260502195023 10 0 0.0 4.8 0.00 0.00 0.00 85 1010.8
20260502194539 10 360 0.0 4.8 0.00 0.00 0.00 85 1011.1
20260502194027 10 360 0.0 6.4 0.00 0.00 0.00 85 1011.0
20260502193526 10 360 1.6 6.4 0.00 0.00 0.00 85 1011.2
20260502193038 10 0 0.0 3.2 0.00 0.00 0.00 85 1011.1
20260502192526 10 360 0.0 4.8 0.00 0.00 0.00 85 1011.1
20260502192025 10 0 1.6 4.8 0.00 0.00 0.00 85 1011.1
20260502191538 10 360 1.6 6.4 0.00 0.00 0.00 84 1011.4
20260502191029 10 0 0.0 6.4 0.00 0.00 0.00 84 1011.3
20260502190527 10 0 1.6 6.4 0.00 0.00 0.00 83 1011.3
20260502190037 10 360 0.0 9.7 0.00 0.00 0.00 82 1011.3
20260502185525 10 0 3.2 9.7 0.00 0.00 0.00 81 1011.5
20260502185025 10 0 0.0 4.8 0.00 0.00 0.00 81 1011.5
20260502184542 10 0 0.0 4.8 0.00 0.00 0.00 81 1011.7
20260502184029 11 0 0.0 6.4 0.00 0.00 0.00 81 1011.6
20260502183526 10 0 0.0 6.4 0.00 0.00 0.00 80 1011.7
20260502183041 11 0 0.0 8.0 0.00 0.00 0.00 80 1011.7
20260502182529 11 360 3.2 8.0 0.00 0.00 0.00 78 1011.7
20260502182025 11 360 3.2 12.9 0.00 0.00 0.00 77 1011.6
20260502181538 11 99 0.0 12.9 0.00 0.00 0.00 77 1011.5
20260502181027 11 0 3.2 9.7 0.00 0.00 0.00 75 1011.6
20260502180525 11 110 1.6 9.7 0.00 0.00 0.00 73 1011.7
20260502164026 12 248 0.0 6.4 0.00 0.00 0.00 73 1012.0
20260502163526 12 360 1.6 4.8 0.00 0.00 0.00 73 1012.0
20260502163038 12 171 1.6 11.3 0.00 0.00 0.00 73 1011.9
20260502162528 12 0 1.6 11.3 0.00 0.00 0.00 74 1011.9
20260502162029 11 125 1.6 9.7 0.00 0.00 0.00 74 1011.9
20260502161539 11 142 3.2 11.3 0.00 0.00 0.00 80 1012.0
20260502161026 11 242 1.6 11.3 0.00 0.00 0.00 75 1011.8
20260502160529 11 186 1.6 8.0 0.00 0.00 0.00 77 1012.0
20260502152025 11 360 3.2 11.3 0.00 0.00 0.00 77 1012.3
20260502151542 11 170 3.2 11.3 0.00 0.00 0.00 77 1012.4
20260502151028 11 145 3.2 11.3 0.00 0.00 0.00 76 1012.4
20260502150525 11 194 1.6 9.7 0.00 0.00 0.00 75 1012.7
20260502130524 11 0 1.6 9.7 0.00 0.00 0.00 76 1012.9
20260502123527 10 0 1.6 4.8 0.00 0.00 0.00 79 1012.8
20260502123039 10 248 0.0 4.8 0.00 0.00 0.00 78 1013.0
20260502122525 10 297 0.0 4.8 0.00 0.00 0.00 78 1013.0
20260502122026 10 267 0.0 4.8 0.00 0.00 0.00 79 1012.9
20260502121545 10 0 0.0 3.2 0.00 0.00 0.00 79 1012.9
20260502121027 10 0 0.0 6.4 0.00 0.00 0.00 79 1012.8
20260502120526 10 198 0.0 6.4 0.00 0.00 0.00 79 1012.8
20260502115531 10 198 1.6 4.8 0.00 0.00 0.00 79 1012.7
20260502115027 10 0 0.0 4.8 0.00 0.00 0.00 80 1012.7
20260502114544 10 166 0.0 4.8 0.00 0.00 0.00 80 1012.6
20260502114027 9 147 0.0 4.8 0.00 0.00 0.00 81 1012.7
20260502113528 9 0 0.0 3.2 0.00 0.00 0.00 81 1012.6
20260502113042 9 0 0.0 6.4 0.00 0.00 0.00 81 1012.5
20260502112527 8 360 0.0 6.4 0.00 0.00 0.00 81 1012.7
20260502112031 8 0 0.0 4.8 0.00 0.00 0.00 81 1012.5
20260502111539 8 360 0.0 3.2 0.00 0.00 0.00 82 1012.4
20260502111026 8 360 0.0 3.2 0.00 0.00 0.00 81 1012.3
20260502110528 8 0 0.0 3.2 0.00 0.00 0.00 81 1012.3
20260502110041 8 0 0.0 3.2 0.00 0.00 0.00 82 1012.3
20260502105528 8 0 0.0 3.2 0.00 0.00 0.00 82 1012.3
20260502105028 8 13 0.0 3.2 0.00 0.00 0.00 82 1012.2
20260502104547 8 0 0.0 1.6 0.00 0.00 0.00 82 1012.4
20260502104027 8 0 0.0 1.6 0.00 0.00 0.00 81 1012.3
20260502103527 8 0 0.0 1.6 0.00 0.00 0.00 81 1012.3
20260502103037 7 0 0.0 0.0 0.00 0.00 0.00 81 1012.2
20260502102528 7 0 0.0 0.0 0.00 0.00 0.00 81 1011.9
20260502102028 7 0 0.0 0.0 0.00 0.00 0.00 81 1012.0
20260502101540 7 0 0.0 3.2 0.00 0.00 0.00 81 1012.1
20260502101030 7 0 0.0 3.2 0.00 0.00 0.00 80 1011.9
20260502100525 7 0 0.0 3.2 0.00 0.00 0.00 80 1011.9
20260502091026 7 0 0.0 1.6 0.00 0.00 0.00 79 1011.7
20260502090527 7 0 0.0 3.2 0.00 0.00 0.00 79 1011.7
20260502071026 8 0 0.0 1.6 0.00 0.00 0.00 72 1011.7
20260502070528 8 0 0.0 3.2 0.00 0.00 0.00 72 1011.7
20260502070041 8 40 0.0 3.2 0.00 0.00 0.00 72 1011.7
20260502065526 8 38 0.0 4.8 0.00 0.00 0.00 71 1011.7
20260502065032 8 0 0.0 4.8 0.00 0.00 0.00 71 1011.6
20260502064541 8 360 0.0 6.4 0.00 0.00 0.00 70 1011.6
20260502064027 9 360 0.0 6.4 0.00 0.00 0.00 70 1011.6
20260502063527 9 0 0.0 6.4 0.00 0.00 0.00 69 1011.8
20260502063037 9 360 0.0 4.8 0.00 0.00 0.00 69 1011.8
20260502062527 9 360 0.0 4.8 0.00 0.00 0.00 69 1011.9
20260502062029 9 221 0.0 4.8 0.00 0.00 0.00 68 1011.9
20260502061535 9 0 1.6 6.4 0.00 0.00 0.00 68 1012.0
20260502061026 9 0 1.6 9.7 0.00 0.00 0.00 68 1011.9
20260502060528 9 360 1.6 9.7 0.00 0.00 0.00 68 1012.0
20260502060042 9 0 3.2 9.7 0.00 0.00 0.00 69 1011.9
20260502055528 9 360 0.0 16.1 0.00 0.00 0.00 69 1011.9
20260502055027 9 360 0.0 16.1 0.00 0.00 0.00 69 1012.0
20260502054540 9 360 0.0 9.7 0.00 0.00 0.00 69 1012.0
20260502054025 9 0 3.2 9.7 0.00 0.00 0.00 69 1012.0
20260502053525 9 360 0.0 16.1 0.00 0.00 0.00 68 1012.1
20260502053038 9 360 3.2 16.1 0.00 0.00 0.00 68 1012.2
20260502052527 9 360 1.6 4.8 0.00 0.00 0.00 68 1012.2
20260502052028 9 360 0.0 4.8 0.00 0.00 0.00 67 1012.2
20260502051558 9 360 0.0 9.7 0.00 0.00 0.00 67 1012.2
20260502051027 9 222 0.0 11.3 0.00 0.00 0.00 67 1012.1
20260502050527 9 252 1.6 11.3 0.00 0.00 0.00 67 1012.2
20260502050038 9 0 0.0 6.4 0.00 0.00 0.00 66 1012.0
20260502045527 9 231 0.0 6.4 0.00 0.00 0.00 66 1012.1
20260502045029 9 162 0.0 3.2 0.00 0.00 0.00 66 1012.1
20260502044541 9 0 0.0 3.2 0.00 0.00 0.00 66 1012.1
20260502044027 9 0 0.0 3.2 0.00 0.00 0.00 65 1012.2
20260502043527 9 272 0.0 3.2 0.00 0.00 0.00 65 1012.2
20260502043044 10 252 0.0 3.2 0.00 0.00 0.00 65 1012.3
20260502042528 10 246 0.0 3.2 0.00 0.00 0.00 65 1012.2
20260502042027 10 213 0.0 8.0 0.00 0.00 0.00 65 1012.1
20260502041540 10 213 0.0 8.0 0.00 0.00 0.00 66 1012.2
20260502041025 10 244 0.0 6.4 0.00 0.00 0.00 66 1012.2
20260502040525 10 242 0.0 4.8 0.00 0.00 0.00 66 1012.3
20260502040039 10 232 0.0 4.8 0.00 0.00 0.00 66 1012.3
20260502035527 10 274 1.6 6.4 0.00 0.00 0.00 65 1012.3
20260502035027 10 217 0.0 6.4 0.00 0.00 0.00 66 1012.4
20260502034544 10 0 1.6 6.4 0.00 0.00 0.00 66 1012.4
20260502034026 10 0 0.0 8.0 0.00 0.00 0.00 66 1012.3
20260502033526 10 263 1.6 8.0 0.00 0.00 0.00 66 1012.3
20260502033050 10 0 0.0 4.8 0.00 0.00 0.00 65 1012.4
20260502032527 10 308 1.6 4.8 0.00 0.00 0.00 65 1012.3
20260502032027 10 0 0.0 6.4 0.00 0.00 0.00 65 1012.3
20260502031559 10 261 1.6 6.4 0.00 0.00 0.00 65 1012.3
20260502031028 10 0 1.6 4.8 0.00 0.00 0.00 65 1012.3
20260502030527 10 0 0.0 4.8 0.00 0.00 0.00 65 1012.4
20260502030039 10 0 0.0 6.4 0.00 0.00 0.00 65 1012.3